Vertical_Velocity
13 9 7 8 3 1 1 1 1 2 2 2 3 2 0 -0 0 -0 -0 -0 -1 -3 -1 0 1 -1 -1 -1 -2 -0 -1 1 -0 -2 -2 -2 -1 -1 -1 -1 -1 -1 -0
-9 5 3 5 2 5 5 1 3 -0 1 2 2 0 -1 -1 2 0 -0 -1 -0 -3 -1 2 1 -1 -1 -2 -1 -0 -2 -1 -0 -1 -2 -3 -1 -0 -0 -0 -0 1 0
-35 6 -1 7 8 2 4 5 4 3 2 1 0 1 1 -0 3 1 0 -1 -1 -1 -0 1 2 -1 -1 -1 0 -1 -2 -2 0 0 -0 -2 -1 -1 -1 -1 -1 -0 -0
-3 -35 -8 -1 2 8 7 2 4 2 3 1 3 3 1 -1 -0 1 2 -0 -2 -0 0 1 1 -1 -1 0 0 -1 -3 -2 -1 -1 0 -0 -0 -1 -2 -0 -0 1 -0
-5 -1 -27 -12 10 4 5 5 1 -0 -2 1 2 1 1 -0 -0 2 1 -1 -1 0 0 1 1 -1 -0 0 0 -0 -1 -2 -2 -2 -1 -0 -0 -1 -1 1 -1 -3 1
4 12 7 -11 -24 -1 7 4 3 -0 1 1 2 3 3 2 1 0 1 1 -1 1 1 1 0 -1 -1 -0 0 -1 -1 -1 -2 -2 -2 -2 -1 -1 -0 1 2 3 3
0 1 3 6 -1 -28 11 4 3 3 1 2 3 3 1 2 1 1 1 -0 -0 1 1 0 -0 -0 0 -0 -1 -1 -1 -1 -2 -2 -2 -1 -1 -0 -1 -1 -2 -1 6
10 0 1 9 9 5 -33 11 8 -0 1 2 1 1 2 1 1 1 1 0 1 2 1 1 0 -0 -0 0 -1 -1 -1 -1 -1 -2 -2 -1 -1 -1 -1 -2 -1 -1 -0
9 11 9 4 10 3 1 10 8 1 5 0 3 3 -0 1 1 1 2 1 1 1 1 0 1 -0 -1 0 -0 -1 -1 -1 -2 -2 -2 -2 -1 -2 -2 -1 -1 -1 -4
0 -1 3 6 6 8 1 1 5 6 2 3 3 2 1 0 0 1 1 1 1 2 1 1 0 -0 -1 0 0 -1 -1 -2 -2 -1 -1 -1 -1 -1 -1 -2 -1 -3 -3
3 1 -2 2 6 5 3 2 2 2 1 6 -3 1 3 2 1 2 1 1 1 2 1 0 0 -0 -1 1 0 -1 -2 -2 -1 -1 -1 -0 -1 -1 -1 -1 -0 -1 -1
-3 -1 2 3 5 4 5 7 4 7 2 2 4 2 1 3 1 2 2 1 1 1 1 0 -1 -1 1 2 -1 -1 -1 -1 -1 -1 -0 -1 -1 -1 -0 0 -1 -1 -2
2 1 -0 2 4 5 5 8 7 5 6 5 2 2 1 3 1 1 2 2 2 2 0 -0 -0 0 2 -0 -1 -1 -1 -1 -1 -1 -0 0 -0 -0 -1 -1 -2 -1 -1
-2 -1 3 -3 -6 1 8 10 7 4 2 2 1 3 1 2 1 2 2 2 2 1 0 -1 -0 0 -1 -0 -1 -1 -0 -1 -1 -1 -1 -2 -2 -0 -1 -2 -2 -1 -0
-1 1 -2 -1 -1 2 3 1 1 3 4 2 3 0 2 0 2 2 3 -1 1 -1 -1 0 0 0 1 -0 -1 -0 -1 -1 -1 -2 -2 -1 -2 -4 -4 -4 -1 -2 -2
3 -7 -2 -2 -15 -2 1 3 3 1 0 2 0 1 1 -1 -1 -3 8 -4 4 0 -1 0 1 0 -1 -1 -1 1 -1 -0 1 1 -2 -3 -4 -3 -1 -1 -2 -3 -6
7 5 6 12 -2 4 2 -0 4 3 4 1 -3 -1 6 5 -9 6 0 4 1 -1 -2 1 -0 -0 -1 -1 -2 -1 -0 -1 -3 -3 -3 -0 -2 -3 -1 0 -1 -1 0
3 7 -5 -1 -0 4 4 2 2 1 9 3 -0 5 7 -4 -2 5 4 -1 1 -2 -0 1 -1 -1 -0 -1 -3 -0 -1 -0 -3 -3 -3 -2 -0 -2 -3 -1 -1 -0 0
1 8 3 -1 6 3 -1 2 3 5 1 4 5 4 1 -2 1 5 -1 1 -0 -0 0 -0 -0 -1 -2 -0 -3 -2 -2 -2 -1 -1 -2 -3 -2 -2 -1 -4 -3 -2 1
1 4 4 2 1 -7 2 8 3 3 6 6 2 1 -2 2 -1 2 1 -0 0 -0 -1 -1 -1 -0 -1 -1 -1 -1 0 1 -0 -4 -3 -4 -4 -3 -3 -2 -3 -3 -3
6 2 1 9 8 6 0 3 1 5 1 -1 1 -1 3 -3 1 2 0 -1 -1 -0 -0 -1 -1 -2 0 -2 -1 -3 -2 -2 -1 -4 -2 -2 -3 -1 -2 -2 -2 -4 -4
-4 -3 4 6 5 7 2 4 0 3 3 -0 2 -1 -1 -1 2 1 1 -0 -0 -0 -0 -1 -2 -1 -1 -2 -1 -2 -4 -4 -3 -3 -2 -4 -2 -3 -1 -0 -0 -1 -3
8 7 7 1 3 3 3 5 3 2 2 0 -1 -0 0 2 2 1 -0 -0 -1 -2 -1 -1 -1 -0 -3 -3 -3 -3 -3 -3 -5 -3 -4 -2 -2 -2 -2 -2 -2 -2 -1
4 6 3 2 2 2 3 2 1 1 -0 -1 -0 2 2 1 -0 -0 -2 -1 0 -0 -1 -2 -2 0 -1 -2 -4 -4 -3 -3 -3 -4 -4 -3 -4 -3 -4 -2 -0 -1 -2
5 3 3 3 5 4 3 3 2 0 -0 2 2 1 1 0 -1 -0 1 1 0 0 -0 -2 -1 -2 -2 -4 -3 -1 2 0 -1 -4 -3 -1 -1 0 1 2 -0 0 -0
7 5 5 4 3 3 4 2 1 2 3 1 1 0 -1 -2 -0 1 -1 -0 -2 -2 -2 -2 -1 -1 -3 -1 -0 -0 -2 -1 -3 -2 -2 0 -1 -1 -2 -0 1 3 2
Height
3113 3113 3116 3121 3123 3126 3128 3130 3133 3135 3138 3142 3145 3147 3149 3151 3152 3154 3154 3155 3155 3155 3153 3153 3154 3154 3154 3154 3153 3152 3151 3151 3150 3150 3149 3148 3147 3146 3144 3143 3142 3141 3139
3105 3107 3110 3114 3117 3121 3124 3126 3128 3130 3134 3137 3139 3141 3144 3146 3147 3149 3150 3150 3151 3150 3149 3149 3151 3151 3150 3150 3151 3150 3149 3148 3147 3147 3146 3145 3145 3143 3141 3140 3139 3138 3137
3099 3102 3103 3109 3112 3115 3118 3121 3124 3126 3128 3131 3133 3136 3139 3141 3143 3144 3145 3145 3146 3145 3145 3146 3147 3147 3147 3147 3148 3148 3147 3146 3145 3144 3143 3142 3141 3140 3138 3137 3135 3134 3133
3093 3095 3096 3101 3105 3109 3112 3115 3118 3120 3123 3124 3127 3131 3133 3135 3137 3138 3139 3140 3140 3140 3141 3142 3143 3144 3143 3144 3144 3144 3144 3143 3142 3141 3139 3138 3137 3136 3135 3134 3132 3131 3129
3083 3090 3090 3094 3097 3102 3106 3109 3112 3114 3117 3119 3122 3124 3126 3129 3131 3132 3134 3135 3135 3135 3137 3138 3139 3139 3140 3140 3140 3141 3140 3139 3138 3137 3136 3134 3133 3132 3131 3129 3128 3126 3125
3075 3081 3086 3088 3087 3096 3099 3101 3104 3106 3109 3112 3115 3117 3120 3122 3125 3127 3128 3129 3130 3131 3132 3134 3135 3135 3135 3136 3136 3136 3135 3134 3133 3132 3131 3129 3128 3127 3126 3125 3124 3123 3120
3066 3070 3074 3079 3085 3088 3090 3095 3096 3099 3102 3106 3109 3112 3114 3117 3119 3120 3121 3123 3125 3126 3127 3129 3130 3131 3131 3131 3132 3131 3130 3129 3128 3127 3125 3123 3122 3120 3119 3118 3117 3117 3118
3054 3060 3065 3069 3075 3080 3083 3088 3090 3093 3097 3100 3103 3105 3107 3109 3111 3113 3115 3117 3119 3121 3122 3124 3125 3126 3126 3126 3126 3126 3125 3123 3122 3120 3119 3117 3115 3114 3112 3111 3110 3108 3109
3043 3048 3053 3059 3065 3069 3074 3079 3082 3086 3090 3093 3096 3098 3101 3103 3105 3107 3109 3111 3113 3115 3117 3119 3120 3121 3121 3121 3120 3120 3119 3117 3115 3114 3112 3110 3109 3107 3106 3103 3101 3099 3098
3035 3038 3042 3048 3054 3060 3064 3070 3075 3079 3083 3086 3089 3091 3093 3096 3098 3100 3103 3106 3108 3110 3112 3114 3115 3116 3115 3115 3114 3113 3111 3110 3108 3107 3106 3105 3103 3101 3099 3096 3094 3092 3088
3026 3029 3033 3038 3043 3050 3056 3061 3066 3070 3074 3077 3081 3083 3086 3088 3091 3094 3097 3100 3102 3105 3107 3108 3109 3109 3108 3107 3106 3105 3104 3103 3102 3101 3100 3098 3096 3094 3092 3089 3087 3084 3080
3018 3021 3024 3028 3034 3039 3045 3051 3056 3061 3066 3069 3072 3075 3078 3081 3084 3088 3091 3094 3097 3100 3101 3102 3102 3102 3101 3100 3099 3098 3097 3097 3096 3094 3093 3091 3089 3087 3085 3082 3079 3076 3071
3012 3015 3017 3021 3026 3031 3036 3042 3048 3052 3057 3061 3065 3068 3071 3075 3079 3083 3087 3089 3092 3093 3094 3094 3094 3094 3093 3093 3092 3092 3091 3090 3089 3087 3086 3084 3082 3079 3076 3073 3070 3066 3062
3010 3010 3012 3017 3022 3027 3032 3036 3041 3045 3050 3054 3058 3062 3066 3070 3074 3078 3081 3084 3085 3086 3087 3087 3087 3087 3086 3086 3085 3085 3084 3083 3081 3080 3078 3075 3072 3069 3066 3063 3059 3054 3050
3005 3006 3009 3012 3015 3020 3025 3029 3034 3039 3043 3048 3052 3056 3060 3065 3069 3073 3075 3077 3078 3079 3079 3080 3080 3080 3079 3079 3079 3078 3077 3075 3073 3070 3068 3065 3062 3058 3054 3050 3046 3041 3036
2998 3001 3003 3006 3011 3015 3019 3024 3028 3034 3039 3043 3048 3052 3056 3060 3065 3069 3068 3070 3070 3071 3072 3073 3073 3073 3073 3072 3071 3070 3069 3067 3065 3062 3058 3054 3051 3047 3042 3037 3032 3027 3022
2993 2994 2997 3000 3005 3010 3015 3018 3024 3028 3033 3038 3042 3047 3050 3054 3058 3062 3061 3062 3063 3065 3066 3067 3067 3067 3066 3065 3063 3062 3060 3058 3055 3051 3047 3044 3039 3034 3029 3025 3021 3017 3012
2986 2989 2992 2998 3002 3004 3007 3013 3018 3023 3028 3032 3037 3043 3046 3048 3053 3054 3054 3056 3058 3059 3060 3060 3060 3059 3058 3057 3055 3053 3050 3047 3043 3039 3035 3030 3027 3023 3018 3014 3010 3008 3004
2980 2983 2987 2992 2997 3001 3005 3010 3015 3019 3025 3029 3034 3037 3040 3043 3046 3047 3049 3051 3051 3052 3053 3053 3052 3051 3050 3048 3046 3042 3039 3036 3032 3028 3023 3019 3015 3011 3008 3004 3000 2998 2996
2973 2976 2982 2985 2988 2995 2999 3004 3010 3016 3021 3024 3027 3031 3034 3038 3040 3042 3043 3044 3044 3045 3045 3045 3044 3044 3042 3039 3036 3032 3029 3026 3022 3018 3013 3009 3005 3001 2998 2994 2991 2988 2984
2964 2968 2973 2979 2984 2990 2995 3000 3006 3010 3014 3019 3023 3026 3029 3032 3034 3035 3036 3037 3037 3038 3038 3037 3036 3034 3032 3029 3025 3022 3018 3014 3011 3007 3005 3001 2997 2992 2989 2985 2982 2979 2975
2957 2962 2967 2972 2978 2983 2990 2996 3001 3006 3010 3014 3018 3021 3023 3025 3026 3028 3029 3030 3030 3030 3030 3029 3027 3025 3022 3018 3015 3012 3008 3004 3001 2998 2995 2991 2988 2984 2981 2978 2975 2971 2967
2949 2954 2961 2968 2975 2980 2986 2991 2996 3000 3005 3009 3012 3014 3016 3018 3020 3021 3022 3022 3022 3022 3021 3019 3017 3015 3012 3008 3005 3002 2999 2996 2992 2989 2986 2983 2980 2977 2975 2971 2968 2963 2960
2944 2950 2957 2963 2970 2975 2981 2986 2991 2995 2999 3002 3004 3007 3010 3011 3012 3013 3014 3013 3013 3012 3011 3009 3008 3006 3003 3000 2997 2994 2991 2987 2984 2981 2979 2976 2973 2970 2967 2963 2960 2956 2953
2943 2949 2955 2960 2966 2971 2976 2981 2985 2989 2992 2995 2998 3001 3002 3004 3004 3005 3006 3005 3005 3004 3002 3000 2999 2997 2996 2993 2990 2987 2984 2982 2979 2976 2973 2969 2966 2962 2959 2956 2953 2950 2946
2943 2947 2952 2957 2962 2967 2972 2976 2980 2983 2986 2989 2991 2993 2994 2995 2997 2997 2997 2997 2997 2995 2993 2992 2990 2989 2987 2985 2983 2980 2977 2975 2971 2968 2965 2961 2958 2954 2951 2948 2945 2943 2939